Home   Weather   Prievidza   Past weeks

Flag for Slovakia Past Weather in Prievidza, Slovakia — Yesterday and Last 2 Weeks

Now
74 °F

Passing clouds.


Feels Like: 77 °F
Forecast: 49 / 77 °F
Wind: 8 mph from Northwest

Location: Prievidza

Current Time: Aug 30, 2016 at 1:13:47 PM

Latest Report: Aug 30, 2016 at 12:00 PM


Visibility: 19 mi

Pressure: 30.15 "Hg

Humidity: 52%

Dew Point: 55 °F

Location of PrievidzaLocation

Past Weather in Prievidza — Graph

°F

Prievidza Temperature Yesterday

Maximum temperature yesterday: 83 °F (at 12:00 PM)
Minimum temperature yesterday: 56 °F (at 6:00 AM)
Average temperature yesterday: 68 °F

High & Low Weather Summary for the Past Weeks

 TemperatureHumidityPressure
High86 °F (Aug 28, 3:00 PM)94% (Aug 20, 7:00 AM)30.29 "Hg (Aug 20, 7:00 AM)
Low48 °F (Aug 18, 6:00 AM)38% (Aug 23, 4:00 PM)29.82 "Hg (Aug 18, 6:00 PM)
Average67 °F71%30.07 "Hg
* Reported Aug 15 12:00 PM — Aug 30 12:00 PM, Prievidza, Weather by CustomWeather, © 2016

Note: Actual official high and low records may vary slightly from our data, if they occured in-between our weather recording intervals... More about our weather records

Advertising

Prievidza Weather History for the Previous 24 Hours

Scroll right to see more
 ConditionsComfort  
Time TempWeatherWind HumidityBarometerVisibility
12:00 PM
Tue, Aug 30
74 °FPassing clouds.8 mph52%30.15 "Hg19 mi
11:00 AM73 °FPassing clouds.6 mph57%30.14 "Hg19 mi
8:00 AM67 °FScattered clouds.N/A77%30.11 "Hg12 mi
7:00 AM63 °FMild.N/A82%30.11 "Hg16 mi
6:00 AM60 °FCool.N/A88%30.10 "Hg17 mi
5:00 AM60 °FCool.N/A92%30.08 "Hg6 mi
1:00 AM63 °FMild.No wind91%30.06 "Hg7 mi
12:00 AM64 °FMild.N/A91%30.06 "Hg7 mi
11:00 PM
Mon, Aug 29
64 °FMild.N/A91%30.04 "Hg8 mi
10:00 PM65 °FPassing clouds.N/A90%30.04 "Hg6 mi
9:00 PM67 °FPassing clouds.N/A87%30.03 "Hg7 mi
8:00 PM70 °FMild.1 mph82%29.99 "HgN/A
7:00 PM72 °FPartly sunny.N/A79%29.98 "Hg14 mi
6:00 PM77 °FWarm.2 mph65%29.97 "HgN/A
5:00 PM77 °FScattered clouds.N/A68%29.96 "Hg14 mi
4:00 PM72 °FPartly sunny.N/A81%29.99 "Hg9 mi
3:00 PM71 °FOvercast.N/A83%30.01 "Hg9 mi
2:00 PM76 °FLight rain. Overcast.7 mph63%30.00 "Hg16 mi
1:00 PM83 °FPartly sunny.6 mph51%29.97 "Hg16 mi
Weather by CustomWeather, © 2016

See weather overviewHow to use our weather pages